Wind_Speed
68 65 68 69 70 75 84 88 89 93 98 99 102 97 91 77 62 59 59 55 56 61 62 67 71 70 66 64 60 63 63 68 72 85 94 111 116 112 109 106 103 102 98 90 78
68 67 71 72 75 80 88 90 91 97 98 100 103 96 91 80 63 62 56 57 59 64 64 68 67 69 62 59 54 55 58 70 78 89 99 114 119 113 109 106 104 101 102 95 83
69 77 70 71 83 83 88 92 97 99 99 103 105 97 94 81 65 64 59 59 62 65 67 68 65 59 52 50 48 45 54 67 74 87 103 115 117 115 107 105 103 102 101 95 91
85 79 75 84 91 90 95 96 97 101 102 105 104 97 93 78 71 65 60 62 63 66 67 66 55 45 44 40 42 43 57 71 73 88 101 112 113 116 108 105 104 105 105 99 94
93 86 88 88 92 96 96 97 101 101 105 106 100 96 88 75 71 65 62 62 64 68 63 56 41 37 38 41 43 50 57 68 70 83 96 107 114 115 110 108 105 105 103 99 96
98 93 90 97 96 98 97 98 99 101 105 99 96 93 86 74 68 64 63 66 66 65 56 45 33 32 37 40 46 52 60 65 68 82 95 104 111 112 113 108 103 103 104 100 98
107 100 97 102 100 99 97 99 99 104 99 95 92 89 80 69 66 65 67 66 63 56 48 37 28 30 36 43 52 55 58 54 65 79 90 101 110 113 112 113 106 103 101 98 95
109 105 99 101 102 102 100 99 97 93 89 87 86 84 72 66 64 66 67 67 62 52 41 33 27 26 35 47 55 58 57 62 67 81 90 100 107 108 109 115 109 105 102 101 90
110 107 108 104 106 103 101 97 87 82 80 82 84 80 66 63 64 69 66 67 60 48 36 31 26 24 36 49 57 60 59 63 68 76 81 91 102 104 110 114 105 102 103 104 98
91 94 95 95 94 92 93 88 85 74 77 78 80 77 60 60 64 68 67 64 60 44 34 29 24 24 38 48 53 53 61 62 72 75 85 88 94 105 109 110 114 104 102 101 100
83 90 85 86 85 82 79 76 72 69 73 76 78 70 58 55 63 65 66 61 57 41 33 27 22 26 36 46 55 65 71 71 77 85 84 93 98 101 109 111 108 113 105 102 98
63 74 74 73 70 70 68 68 66 67 69 74 73 61 57 57 63 65 65 58 50 38 31 24 19 26 36 45 57 63 63 66 79 85 89 88 95 103 108 109 109 117 111 107 107
58 65 65 62 57 58 57 61 60 59 64 70 68 55 55 58 64 63 62 55 43 34 27 22 16 25 36 44 56 60 63 68 72 83 88 89 90 101 103 106 111 114 119 110 108
55 55 51 50 47 47 50 51 49 53 61 64 61 50 52 57 62 61 59 48 36 30 22 16 13 25 35 43 54 60 62 66 75 80 84 87 93 89 98 103 109 113 114 114 111
52 54 47 43 40 42 42 42 43 50 56 58 54 48 50 56 57 60 53 43 33 25 18 9 13 25 35 45 52 60 63 67 72 77 79 80 84 89 91 97 105 109 110 118 110
54 50 43 40 35 37 34 33 39 44 50 53 48 45 49 56 55 55 50 42 28 22 15 5 12 24 31 36 49 60 62 65 70 73 76 78 78 86 88 93 99 102 105 107 118
53 47 42 37 35 31 28 29 35 39 49 48 46 40 46 55 53 52 46 37 25 19 14 3 9 21 30 40 47 54 62 66 68 72 73 73 72 79 83 82 89 95 100 103 110
50 45 42 35 33 26 25 22 29 34 46 45 46 35 45 51 49 50 44 37 27 21 17 7 6 14 23 33 47 53 60 66 68 66 64 65 70 75 76 76 80 87 94 99 105
50 48 42 37 31 26 23 17 23 32 42 44 44 35 46 47 47 44 46 38 32 21 18 11 8 12 21 27 31 45 50 55 61 59 59 63 67 68 71 74 79 84 88 93 98
50 51 44 38 30 26 14 15 19 28 38 41 44 39 43 44 44 41 42 41 35 27 19 14 8 11 16 26 34 39 43 44 47 50 54 59 62 62 63 69 76 77 79 85 92
57 52 47 38 32 23 12 12 15 24 33 38 43 42 42 45 43 43 45 42 37 32 21 15 10 4 13 23 30 35 40 43 42 42 46 53 59 63 62 65 67 69 73 76 81
58 53 45 39 33 20 12 8 13 19 28 34 37 40 41 45 45 45 45 45 42 35 28 16 9 5 2 9 23 32 39 44 44 43 43 50 55 60 58 58 59 66 71 73 75
60 52 44 39 28 22 13 6 9 14 22 27 32 36 45 46 46 46 46 48 46 41 35 25 14 7 3 1 9 16 30 35 39 43 46 48 51 53 56 59 60 64 68 70 73
58 49 44 37 30 22 12 6 4 11 18 21 28 35 42 48 47 51 47 50 49 43 38 31 20 11 3 2 8 14 19 25 32 37 40 44 47 50 53 55 58 61 64 68 71
56 50 44 38 30 21 13 7 1 8 13 16 27 33 38 45 50 56 52 53 51 47 44 38 31 18 11 2 5 10 15 20 24 25 32 38 40 43 46 49 51 55 58 61 64
58 52 43 38 31 22 14 8 3 5 9 15 23 30 35 41 46 52 55 53 56 52 51 49 42 33 23 12 3 7 13 17 20 25 32 32 38 41 44 47 50 55 58 61 63
59 51 43 36 28 22 15 9 5 4 7 13 21 25 34 40 42 47 51 51 54 56 53 54 49 42 33 24 17 11 6 11 16 22 25 29 34 36 43 48 52 57 61 64 64
Wind_Direction
291 287 294 296 304 304 307 312 314 314 316 318 318 314 316 314 315 315 309 299 298 294 292 290 287 287 281 275 260 249 240 230 223 211 207 209 215 214 215 214 217 214 214 219 211
284 292 292 295 300 302 305 307 311 312 314 314 316 313 314 314 316 315 306 301 298 299 294 292 291 288 278 268 252 246 233 223 215 206 206 207 213 214 214 214 215 215 215 217 213
280 289 290 292 297 299 302 306 308 309 311 312 312 310 312 315 319 315 307 304 304 302 299 297 290 280 266 259 247 238 227 222 214 209 204 206 209 215 213 214 213 213 217 215 213
287 287 287 293 293 296 298 302 305 306 308 309 309 308 311 314 318 314 308 307 308 306 304 297 290 268 254 243 235 226 219 219 214 208 205 205 207 212 213 215 213 213 216 214 214
282 282 287 285 290 294 296 299 302 304 305 307 306 307 310 316 319 315 312 311 313 309 303 298 281 260 242 232 224 216 214 218 210 208 208 203 205 208 214 214 214 214 215 216 215
279 279 280 281 286 292 294 296 299 302 304 304 303 306 311 318 319 316 316 317 317 309 304 296 276 254 237 226 219 215 215 215 211 205 205 204 204 205 209 215 214 214 216 218 215
273 279 273 277 281 288 290 293 298 299 300 301 303 306 314 319 319 320 319 319 320 312 308 294 275 254 230 216 213 214 216 210 202 205 204 203 203 205 205 214 214 213 212 217 221
269 271 274 274 280 284 288 292 296 297 299 300 304 307 317 321 321 323 323 323 321 316 307 294 279 255 225 213 211 212 210 200 199 204 202 203 202 204 204 207 215 213 213 210 217
267 269 272 271 276 279 283 288 293 297 299 302 304 308 319 324 325 325 327 326 325 322 308 298 281 249 224 214 210 209 207 201 200 201 202 203 204 203 205 205 213 213 214 213 215
265 268 268 271 274 278 281 285 289 294 299 302 304 312 323 326 326 328 329 329 326 323 309 302 280 242 222 215 209 206 205 200 197 200 202 203 204 205 206 206 205 215 214 215 214
261 263 265 269 271 276 279 284 286 293 299 301 304 315 327 330 330 330 332 330 327 322 310 302 273 233 217 210 203 199 203 199 199 200 202 202 204 206 206 207 207 207 212 212 212
255 261 259 263 267 272 278 280 286 291 299 301 307 316 332 333 331 333 331 332 329 322 311 297 261 225 211 204 205 205 206 201 200 203 204 204 204 206 206 206 207 207 211 210 210
251 256 256 256 261 268 274 279 287 293 298 302 309 320 337 337 335 336 335 333 330 325 311 292 240 216 206 201 204 202 202 199 203 206 206 205 207 208 207 204 207 208 207 212 212
240 249 252 247 254 263 271 280 287 293 297 306 311 329 339 340 336 341 340 336 336 329 316 290 230 205 204 197 201 202 202 200 203 207 209 208 210 210 208 206 207 209 209 210 214
229 242 239 237 246 258 270 279 288 293 300 310 313 338 341 343 340 342 342 342 340 335 323 297 207 197 199 200 198 200 200 198 204 208 211 213 211 215 212 211 209 209 211 210 215
225 233 224 229 235 252 265 277 286 294 304 310 319 343 347 345 346 348 348 347 344 340 340 306 202 197 201 197 196 198 199 203 205 210 212 214 214 216 217 213 211 211 212 214 211
221 220 209 214 227 245 257 271 286 300 305 312 321 348 351 352 351 352 354 356 354 356 6 27 191 189 194 196 200 200 198 204 207 212 210 213 215 218 221 221 214 212 214 215 216
210 200 197 203 220 232 248 270 287 304 306 314 324 354 357 355 356 357 2 6 9 13 28 54 130 176 188 196 198 202 204 204 210 215 215 214 215 218 220 223 223 217 215 216 218
202 185 187 198 210 222 239 271 294 304 310 318 326 351 2 359 3 3 8 14 17 25 32 45 110 150 168 190 202 204 210 212 214 218 218 217 218 219 217 221 223 223 217 218 221
188 175 178 192 201 213 226 263 296 309 316 322 328 350 5 5 9 6 14 19 25 28 34 35 66 132 155 180 194 206 215 222 220 221 219 221 225 224 222 221 224 226 225 223 223
173 167 179 185 198 204 195 257 299 315 320 326 333 347 5 11 16 17 22 23 28 34 35 38 41 98 160 178 189 201 213 220 225 220 221 224 225 229 228 226 226 228 231 231 229
162 166 177 180 190 186 185 252 303 321 322 331 337 351 2 11 20 24 26 29 33 33 38 44 53 44 223 194 200 200 205 211 221 227 224 224 227 230 231 232 228 228 230 232 234
160 169 171 182 179 165 184 241 306 325 327 340 342 358 358 5 21 29 33 37 37 38 35 36 45 85 104 230 238 231 222 220 218 219 222 224 227 229 231 234 232 231 233 234 235
162 165 172 172 166 161 176 224 317 333 338 353 352 0 2 4 11 29 33 39 39 40 42 40 37 42 38 197 218 244 248 236 236 234 230 228 229 229 231 233 235 236 235 236 236
163 168 169 165 159 164 172 204 18 337 348 3 2 2 4 9 11 20 26 36 37 41 41 41 43 40 31 3 226 222 235 246 250 251 245 243 241 237 239 242 240 241 241 240 241
164 166 163 159 159 168 175 183 115 350 2 16 9 1 9 16 15 25 26 31 38 40 38 40 41 40 41 34 342 256 243 234 236 245 250 252 253 246 245 245 245 247 246 247 245
162 163 159 156 161 171 179 169 127 18 23 28 17 18 17 18 20 25 29 33 33 37 36 38 38 42 42 41 35 13 312 258 250 244 242 245 250 253 250 248 246 245 245 246 248
Height
10732 10726 10722 10718 10712 10707 10702 10696 10690 10681 10674 10663 10653 10642 10635 10626 10619 10613 10601 10593 10586 10576 10566 10553 10542 10538 10536 10535 10536 10538 10549 10564 10586 10606 10625 10632 10637 10661 10679 10704 10725 10746 10761 10772 10797
10719 10715 10711 10706 10702 10697 10692 10685 10679 10671 10662 10653 10642 10631 10622 10612 10606 10596 10588 10577 10566 10554 10542 10533 10524 10515 10512 10511 10515 10520 10537 10548 10562 10583 10601 10612 10626 10644 10669 10693 10712 10731 10746 10757 10788
10705 10704 10698 10695 10691 10686 10680 10675 10668 10660 10653 10641 10630 10618 10608 10600 10592 10582 10571 10561 10549 10534 10521 10510 10502 10494 10493 10495 10500 10511 10525 10529 10547 10564 10574 10594 10614 10634 10662 10681 10704 10722 10731 10751 10767
10690 10689 10685 10682 10678 10675 10669 10665 10657 10649 10639 10631 10618 10608 10593 10586 10577 10567 10555 10543 10529 10515 10501 10490 10483 10479 10477 10483 10487 10498 10504 10510 10529 10548 10561 10581 10608 10629 10651 10674 10690 10702 10716 10733 10751
10673 10674 10671 10669 10666 10663 10658 10653 10647 10638 10629 10618 10604 10596 10582 10576 10563 10551 10538 10524 10510 10493 10483 10473 10468 10465 10465 10467 10475 10482 10489 10498 10517 10535 10553 10573 10596 10620 10639 10657 10677 10691 10710 10723 10742
10656 10657 10657 10654 10654 10652 10646 10643 10634 10626 10618 10606 10592 10583 10571 10564 10552 10535 10520 10505 10494 10477 10465 10458 10455 10453 10452 10458 10464 10471 10476 10486 10504 10521 10541 10562 10584 10608 10631 10645 10666 10684 10699 10713 10729
10640 10641 10642 10641 10640 10640 10636 10631 10625 10616 10607 10592 10582 10570 10560 10552 10536 10521 10505 10490 10476 10460 10448 10444 10443 10441 10441 10447 10448 10456 10465 10479 10495 10513 10533 10551 10570 10596 10620 10632 10654 10673 10691 10706 10722
10616 10622 10627 10625 10628 10626 10624 10619 10615 10606 10596 10581 10571 10557 10551 10540 10522 10506 10489 10471 10460 10447 10436 10432 10430 10430 10432 10434 10438 10445 10457 10468 10487 10505 10519 10541 10562 10586 10606 10626 10642 10663 10679 10699 10710
10592 10603 10606 10610 10614 10613 10611 10609 10603 10597 10584 10571 10560 10547 10543 10529 10511 10490 10477 10459 10443 10433 10425 10420 10420 10421 10421 10423 10429 10438 10450 10466 10480 10496 10515 10534 10555 10577 10597 10617 10629 10651 10665 10682 10696
10575 10580 10588 10592 10598 10598 10597 10597 10592 10586 10574 10562 10550 10540 10535 10520 10501 10479 10463 10448 10429 10422 10415 10411 10409 10411 10412 10416 10428 10439 10447 10461 10473 10491 10503 10526 10550 10565 10585 10604 10626 10636 10655 10670 10684
10560 10560 10570 10576 10583 10584 10587 10585 10582 10575 10566 10553 10543 10533 10526 10511 10491 10471 10451 10440 10421 10412 10405 10403 10400 10400 10405 10413 10420 10428 10435 10452 10468 10478 10495 10513 10531 10554 10570 10590 10610 10632 10645 10659 10671
10541 10542 10553 10562 10568 10571 10574 10574 10572 10563 10557 10545 10535 10527 10519 10501 10483 10462 10445 10430 10416 10404 10397 10395 10392 10393 10398 10406 10412 10422 10433 10450 10460 10471 10484 10504 10520 10537 10554 10579 10600 10615 10627 10646 10661
10524 10526 10537 10549 10555 10561 10562 10565 10562 10557 10548 10538 10528 10523 10511 10493 10473 10455 10438 10420 10408 10399 10392 10386 10386 10388 10392 10401 10407 10420 10433 10449 10461 10470 10482 10499 10513 10526 10548 10565 10583 10600 10620 10635 10651
10505 10511 10524 10536 10545 10552 10553 10556 10554 10549 10539 10533 10520 10517 10504 10489 10466 10448 10431 10415 10403 10393 10386 10381 10380 10383 10389 10398 10406 10415 10430 10444 10453 10466 10478 10494 10506 10522 10538 10554 10570 10583 10606 10623 10636
10488 10497 10512 10524 10536 10542 10548 10550 10547 10541 10532 10529 10515 10511 10499 10483 10463 10442 10426 10411 10399 10391 10383 10379 10377 10381 10385 10393 10405 10415 10426 10441 10452 10463 10475 10489 10502 10515 10531 10549 10564 10583 10603 10615 10621
10472 10484 10501 10514 10527 10535 10542 10543 10541 10533 10528 10521 10511 10506 10495 10479 10458 10440 10423 10409 10398 10389 10382 10378 10377 10381 10386 10395 10406 10415 10427 10438 10449 10460 10473 10483 10499 10510 10522 10535 10554 10572 10587 10601 10619
10455 10473 10491 10507 10519 10529 10535 10537 10534 10528 10521 10515 10505 10503 10493 10476 10456 10439 10424 10410 10398 10389 10382 10380 10380 10383 10388 10395 10404 10417 10426 10434 10444 10452 10466 10479 10495 10507 10519 10531 10547 10565 10580 10592 10605
10443 10463 10482 10500 10512 10523 10529 10532 10528 10523 10515 10512 10501 10500 10491 10476 10458 10441 10424 10410 10398 10389 10384 10383 10384 10387 10391 10396 10404 10415 10426 10435 10442 10451 10466 10480 10489 10499 10514 10525 10537 10553 10567 10578 10587
10434 10454 10476 10494 10507 10516 10523 10526 10522 10519 10513 10508 10497 10495 10488 10477 10458 10442 10426 10411 10401 10392 10387 10385 10387 10390 10395 10402 10408 10417 10425 10436 10443 10452 10464 10473 10483 10494 10508 10516 10525 10536 10551 10563 10574
10427 10446 10470 10487 10502 10510 10516 10521 10518 10516 10512 10506 10494 10488 10487 10478 10462 10447 10430 10417 10405 10396 10392 10390 10389 10393 10399 10406 10413 10422 10427 10434 10444 10451 10463 10470 10477 10487 10498 10508 10515 10526 10538 10551 10561
10423 10444 10464 10482 10495 10505 10512 10515 10515 10516 10510 10506 10494 10485 10482 10475 10464 10449 10434 10420 10409 10402 10396 10394 10395 10396 10401 10408 10416 10424 10429 10434 10439 10450 10460 10466 10473 10478 10486 10496 10508 10519 10528 10537 10545
10421 10442 10461 10478 10491 10500 10508 10510 10515 10514 10510 10505 10495 10485 10477 10474 10464 10452 10439 10425 10413 10406 10404 10402 10400 10401 10404 10407 10413 10420 10425 10432 10437 10443 10452 10460 10467 10472 10482 10491 10501 10508 10514 10521 10528
10421 10440 10459 10475 10487 10496 10504 10507 10513 10513 10511 10506 10497 10488 10476 10470 10468 10457 10445 10432 10419 10412 10408 10407 10406 10406 10407 10410 10413 10418 10423 10428 10435 10442 10447 10452 10459 10466 10475 10481 10487 10493 10499 10504 10508
10421 10442 10459 10470 10483 10493 10498 10506 10510 10512 10510 10505 10500 10490 10483 10468 10462 10455 10447 10435 10428 10421 10417 10414 10411 10410 10410 10410 10412 10416 10420 10425 10429 10434 10440 10446 10451 10457 10463 10469 10473 10477 10483 10490 10496
10425 10442 10456 10468 10479 10490 10496 10504 10508 10510 10508 10506 10501 10494 10487 10475 10463 10451 10447 10438 10433 10427 10423 10417 10415 10413 10414 10414 10415 10416 10419 10422 10426 10432 10435 10438 10445 10452 10456 10459 10464 10467 10470 10475 10479
10424 10441 10454 10464 10476 10485 10495 10501 10506 10508 10506 10506 10503 10496 10489 10480 10472 10462 10454 10448 10441 10432 10428 10425 10424 10422 10421 10420 10420 10420 10421 10422 10424 10427 10428 10434 10435 10439 10444 10448 10452 10454 10457 10459 10462
10425 10440 10453 10464 10474 10486 10493 10499 10504 10505 10505 10506 10503 10500 10491 10483 10479 10470 10462 10456 10446 10439 10436 10434 10430 10426 10424 10423 10422 10422 10422 10422 10423 10423 10424 10426 10428 10434 10435 10437 10438 10439 10440 10443 10447